User: anonymous   Login
Location: Caltech
(34.1382°N, 118.1253°W)
Time: 01:08:59
(UTC-07:00)
Language:

CZ-2C R/B - Orbit

View from above orbital plane
View from above orbital plane
View from above satellite
View from above satellite

Ground track
Ground track

The orbit data is extracted from the following two-line orbital elements,

1 28480U 04046B   17081.92958943 +.00000007 +00000-0 +17577-4 0  9990
2 28480 098.1918 183.6965 0143187 118.9460 015.0331 14.25630520641924
Epoch (UTC): 22 March 2017 22:18:36
Eccentricity: 0.0143187
inclination: 98.1918°
perigee height: 703 km
apogee height: 909 km
right ascension of ascending node: 183.6965°
argument of perigee: 118.9460°
revolutions per day: 14.25630520
mean anomaly at epoch: 15.0331°
orbit number at epoch: 64192

The dashed part of the orbit path shows where the satellite is in the earth's shadow,  

DLR